{"data":{"norad_id":64059,"intl_designator":"2025-105B","name":"TIANQI-17","alt_names":[],"object_type":"PAYLOAD","status":"ACTIVE","operator":null,"country":"PRC","launch_date":"2025-05-19","launch_site_code":"YSLA","launch_vehicle":null,"mission":null,"orbit_class":"UNKNOWN","rcs_meters":null,"size_class":null,"mass_kg":null,"dimensions":null,"purposes":[],"wikipedia_slug":null,"has_3d_model":false,"image_url":null,"decayed_at":null,"tle_current":{"epoch":"2026-05-25T05:21:47.877120Z","epoch_age_seconds":52877,"freshness":"FRESH","line1":"1 64059U 25105B   26145.22347080 -.00000054  00000+0  51384-4 0  9995","line2":"2 64059  44.9785 123.8747 0011965 276.1706  83.7763 13.99146210 51989","mean_motion":13.9914621,"eccentricity":0.0011965,"inclination_deg":44.9785,"raan_deg":123.8747,"arg_perigee_deg":276.1706,"mean_anomaly_deg":83.7763,"bstar":5.1384e-5,"rev_number":5198,"period_min":102.91990856338,"perigee_km":888.0487631544,"apogee_km":905.4575753294,"semimajor_km":7274.8901692419,"source":"CELESTRAK","updated_at":"2026-05-25T13:38:04.198367Z"}}}